Regional Weather Roundup
Issued by NWS

Home | Current Version | Previous Version | Text Only | Print | Product List | Glossary On
Versions: 1 2 3 4 5 6 7 8 9 10 11 12 13 14 15 16 17 18 19 20 21 22 23 24 25 26 27 28 29 30 31 32 33 34 35 36 37 38 39 40 41 42 43 44 45 46 47 48 49 50
000
ASUS45 KTFX 052110
RWRMT
MONTANA REGIONAL WEATHER ROUNDUP
NATIONAL WEATHER SERVICE GREAT FALLS MT
200 PM MST MON DEC 05 2016

NOTE: "FAIR" INDICATES FEW OR NO CLOUDS BELOW 12000 FEET WITH NO
SIGNIFICANT WEATHER AND/OR OBSTRUCTIONS TO VISIBILITY.

MTZ001>007-043-052200-
WEST OF THE DIVIDE

CITY           SKY/WX    TMP DP  RH WIND       PRES   REMARKS
KALISPELL      LGT SNOW  22  18  85 S5        30.01R FOG
MISSOULA       CLOUDY    28  11  48 VRB3      30.02S
BUTTE          PTSUNNY   20  -3  36 W8        29.88S WCI  10
MULLAN PASS    PTSUNNY   13   9  84 VRB3      29.85S
ANACONDA         N/A     21   0  39 W14       29.90F WCI   8
DEER LODGE       N/A     21   3  45 N7        29.93F WCI  13
EUREKA           N/A     25  23  93 CALM      30.02S
HAMILTON         N/A     28   7  40 S8        29.99F WCI  20
LIBBY            N/A     28  14  54 CALM      30.01F
RONAN            N/A     26  10  50 CALM      30.04S
$$

MTZ008-052>055-052200-
SOUTHWEST MONTANA

CITY           SKY/WX    TMP DP  RH WIND       PRES   REMARKS
BOZEMAN        CLOUDY    26   6  42 N9        29.94S WCI  17
DILLON         SUNNY     24   0  35 W18       29.89F WCI  10
W YELLOWSTONE  CLOUDY    14  -6  41 W7        29.85S WCI   4
ENNIS          PTSUNNY   21  -6  30 CALM      29.95S
THREE FORKS      N/A     25  25 100 CALM      29.93F
$$

MTZ009-010-012-014-046-048-049-054-052200-
EAST SLOPES AND CENTRAL MONTANA

CITY           SKY/WX    TMP DP  RH WIND       PRES   REMARKS
CUT BANK       CLOUDY     9   0  67 N17       30.01S WCI  -9
GREAT FALLS    CLOUDY    12   4  70 NW5       30.04R HAZE
MALMSTROM AFB  SNOWSHWR  10   5  79 NW8       30.06R WCI  -1
HELENA         CLOUDY    20  14  77 NE7       29.96S WCI  11
AUGUSTA        FLURRIES   6   2  81 N14       29.97S WCI -11
BOWMANS CRNR   FLURRIES   8   4  87 NE13      29.96R WCI  -8
CHOTEAU          N/A     10   3  72 N10       30.03F HAZE    WCI  -3
FAIRFIELD      FLURRIES   9   2  73 NW10      30.02R WCI  -5
POWER          FLURRIES   9   3  76 NW13      30.02S WCI  -6
RAYNESFORD     FLURRIES  10   4  79 W8        30.01R WCI  -2
ULM            FLURRIES  11   5  76 N17       30.04S WCI  -6
$$

MTZ011-013-016-021-045-047-050-051-052200-
NORTH CENTRAL MONTANA

CITY           SKY/WX    TMP DP  RH WIND       PRES   REMARKS
HAVRE          MOSUNNY   10   1  67 NW14      30.09R WCI  -6
LEWISTOWN      CLOUDY    11   4  73 NW12      29.96S WCI  -3
CHINOOK          N/A      9   0  66 W21G28    30.08R WCI -11
DENTON         PTSUNNY   11   5  74 NW14G32   29.98R WCI  -4
GEYSER         PTSUNNY   12   4  70 W21G28    29.97R WCI  -6
GRASS RANGE      N/A     12   5  73 W22G35    29.91R WCI  -7
JUDITH GAP     PTSUNNY   12   4  69 N20       29.90R WCI  -6
ROY            PTSUNNY   10   5  80 MISG      29.93R
STANFORD         N/A     11   4  75 NW18G25   29.94R WCI  -7
WINIFRED       PTSUNNY    9   4  82 MISG      29.97S
$$

MTZ017>020-022>027-061-062-052200-
NORTHEAST MONTANA

CITY           SKY/WX    TMP DP  RH WIND       PRES   REMARKS
GLASGOW        CLOUDY     9   0  67 NW31G38   29.96R WCI -14
JORDAN           N/A     11   3  70 NW25G35   29.95R WCI -10
SIDNEY         LGT SNOW  13   9  84 NW32      29.82R VSB 3/4 WCI  -9
WOLF POINT     LGT SNOW  13   3  64 NW25G35   29.93R WCI  -7
PLENTYWOOD       N/A     10   9  92 NW32      29.77R VSB 1/4 WCI -12
$$

MTZ028>42-056>058-052200-
SOUTHCENTRAL AND SOUTHEAST MONTANA

CITY           SKY/WX    TMP DP  RH WIND       PRES   REMARKS
BAKER          MIX PCPN  17   8  67 NW29G41   29.80R WCI  -2
BILLINGS       CLOUDY    23   3  42 N20G30    29.94R WCI   8
LIVINGSTON     CLOUDY    20   8  60 NW7       29.91R WCI  11
MILES CITY     MIX PCPN  18   6  59 NW29G39   29.92R WCI  -1
BIG TIMBER     SUNNY     23   5  46 W22G33    29.92R WCI   8
FORSYTH          N/A     18  10  73 NW18G30   29.95R WCI   2
HARLOWTON      PTSUNNY   21   5  49 N14G22    29.90R WCI   8
LAUREL           N/A     24   0  35 W9        29.93R WCI  14
ROUNDUP          N/A     21  -2  36 NW17      29.87R WCI   7
$$

REGIONAL REPORTS...DAKOTAS

CITY           SKY/WX    TMP DP  RH WIND       PRES   REMARKS
WILLISTON      SNOW      14  10  84 NW30G38   29.75R VSB 1/4 WCI  -7
MINOT          CLOUDY    22  19  89 W20       29.59R WCI   7
DICKINSON      SNOW      17  13  84 NW25G36   29.67R VSB 1/2 WCI  -1
BEACH          SNOW      12  10  92 NW28G38   29.81R VSB 1/2 WCI  -9
CROSBY         SNOW      16  16 100 NW30G47   29.72R VSB 1/2 WCI  -4
TIOGA          SNOW      16  16 100 NW32G41   29.68R VSB 1/2 WCI  -5
WATFORD CITY   SNOW      14  10  85 NW28G36   29.75R VSB 1/2 WCI  -6
BISMARCK       SNOW      25  23  92 NW22G32   29.61R VSB 1/2 WCI  10
GRAND FORKS    CLOUDY    32  27  81 NE8       29.62S WCI  25
FARGO          CLOUDY    36  29  75 E12       29.53F WCI  28
BUFFALO SD       N/A     23  13  65 NW38G49   29.65R WCI   4
RAPID CITY     FLURRIES  23  14  68 N35G48    29.71R WCI   4
$$

REGIONAL REPORTS...WYOMING/IDAHO/WASHINGTON

CITY           SKY/WX    TMP DP  RH WIND       PRES   REMARKS
GILLETTE       PTSUNNY   18  13  80 NW18      29.80R WCI   2
SHERIDAN       PTSUNNY   20  12  71 NW17      29.88R WCI   5
BUFFALO WY     LGT SNOW  19  11  70 N31G38    29.78S WCI   0
CODY           CLOUDY    18  11  74 N14       29.86R WCI   4
YELLOWSTONE LA   N/A      7   0  73 W6        29.80R WCI  -3
IDAHO FALLS    MOSUNNY   24  14  65 SW20      29.99F WCI  10
SALMON         SUNNY     27   7  43 SW13      29.98F WCI  16
BOISE          SUNNY     33  16  49 CALM      30.10F
SPOKANE        PTSUNNY   31  21  66 S5        30.03F
$$

REGIONAL REPORTS...ALBERTA

CITY           SKY/WX    TMP DP  RH WIND       PRES   REMARKS
EDMONTON       PTSUNNY    0  -6  78 NW12G20   30.18R WCI -18
CALGARY        PTSUNNY    7  -2  66 N12G22    30.03S WCI  -9
LETHBRIDGE     PTSUNNY   10   0  61 NW14G25   30.09S WCI  -5
MEDICINE HAT   PTSUNNY    9   0  66 NW14G20   30.10R WCI  -8
WATERTON GATE    N/A      7   0  72 E8          N/A  WCI  -6
CARDSTON         N/A      9   1  72 NW2         N/A
MILK RIVER       N/A      9   1  72 NW22G28     N/A  WCI -11
ONEFOUR          N/A      3  -2  78 NW22G29     N/A  WCI -19
$$

REGIONAL REPORTS...SASKATCHEWAN

CITY           SKY/WX    TMP DP  RH WIND       PRES   REMARKS
SWIFT CURRENT  CLOUDY     5   1  85 NW26G33   29.92R WCI -18
REGINA         LGT SNOW  16  10  79 NW23G30   29.83R BLWGSNOWWCI  -2
SASKATOON      CLOUDY    10   1  67 NW17G24   29.96R WCI  -7
CYPRESS HILLS    N/A     -2  -8  78 NW12G21     N/A  WCI -20
VAL MARIE        N/A      5  -2  72 NW18G26     N/A  WCI -15
ROCKGLEN         N/A      5   1  85 NW22G32     N/A  WCI -16
ASSINIBOIA       N/A      3  -4  72 NW23G29     N/A  WCI -19
$$



USA.gov is the U.S. government's official web portal to all federal, state and local government web resources and services.